Location: *
(40.4270°N, 9.4940°E)
Time: 09:21:58
(UTC+02:00)

Daily predictions for brighter satellites

Satellite Brightness Start Highest point End
(mag) Time Altitude Azimuth Time Altitude Azimuth Time Altitude Azimuth
Meteor 1-10 Rocket 4.3 20:58:55 10° N 21:04:45 80° E 21:10:26 10° SSE
COSMOS 2487 3.6 21:02:36 10° N 21:05:50 29° ENE 21:09:01 10° SE
Nadezhda 3 Rocket 4.4 21:05:19 10° N 21:11:27 48° ENE 21:17:34 10° SSE
Cosmos 1674 Rocket 3.6 21:07:08 10° N 21:11:36 79° E 21:16:01 10° S
Abrixas 4.0 21:11:58 10° S 21:14:10 18° SE 21:16:22 10° E
Centaur D-1A AC-32 4.2 21:19:50 10° SSW 21:21:46 12° S 21:23:16 10° SSE
Okean 2 Rocket 4.0 21:19:29 10° SSE 21:23:20 30° E 21:27:09 10° NNE
Cosmos 1174 3.4 21:20:39 10° NW 21:23:48 66° WSW 21:26:44 10° SSE
Cosmos 1184 Rocket 3.5 21:21:28 10° SSE 21:24:32 35° E 21:27:38 10° NNE
Cosmos 676 Rocket 4.0 21:20:06 10° NNW 21:25:21 87° ENE 21:30:35 10° SSE
ATLAS 5 CENTAUR R/B 4.0 21:22:35 10° NW 21:27:54 31° WSW 21:33:27 10° S
Cosmos 1954 Rocket 4.0 21:22:47 10° NNW 21:28:01 71° ENE 21:33:14 10° SSE
Cosmos 1782 Rocket 4.0 21:24:42 10° SSE 21:28:54 42° E 21:33:08 10° NNE
Cosmos 2084 3.9 21:25:19 10° SW 21:29:07 58° NW 21:32:55 10° NNE
Meteor 1-27 Rocket 3.7 21:24:22 10° N 21:29:56 77° E 21:35:26 10° SSE
ALOS 3.6 21:27:19 10° SSW 21:31:41 40° W 21:36:06 10° NNW
Cosmos 1606 2.7 21:30:01 10° N 21:33:58 87° E 21:37:53 10° S
Sich 1 Rocket 4.0 21:33:17 10° SSW 21:37:50 68° W 21:42:26 10° N
SJ-11-01 4.4 21:35:36 10° SSE 21:40:21 84° W 21:45:07 10° NNW
OAO 3 Rocket 4.0 21:36:06 10° SW 21:40:35 34° SSE 21:44:11 14° ESE
Intercosmos 25 3.9 21:39:16 14° SSE 21:41:32 27° E 21:44:17 10° NNE
Cosmos 2341 Rocket 4.0 21:35:58 10° S 21:42:12 69° E 21:48:25 10° NNE
Cosmos 1975 Rocket 3.2 21:39:35 10° N 21:43:51 54° E 21:47:26 14° SSE
Cosmos 1862 3.4 21:40:23 10° S 21:44:27 84° W 21:48:33 10° N
Cosmos 1242 Rocket 3.1 21:41:56 10° N 21:45:29 43° ENE 21:47:51 18° SE
Cosmos 1741 Rocket 4.4 21:40:41 10° N 21:45:46 49° ENE 21:49:34 17° SE
SL-8 Rocket 4.4 21:40:31 10° SSE 21:46:22 43° E 21:52:11 10° NNE
Cosmos 962 Rocket 4.4 21:41:36 10° S 21:47:43 75° E 21:53:58 10° N
CZ-4 DEB 4.2 21:45:25 10° SSW 21:48:22 36° W 21:51:20 10° NNW
Lacrosse 5 rocket 3.4 21:52:21 11° E 21:52:21 11° E 21:52:34 10° ENE
Cosmos 1378 Rocket 3.7 21:47:51 10° N 21:52:11 76° W 21:56:30 10° S
Cosmos 1908 Rocket 4.2 21:48:59 10° SSW 21:53:19 58° W 21:57:43 10° N
COS B Rocket 3.0 21:49:24 10° N 21:53:19 88° W 21:56:42 10° S
YAOGAN 6 3.4 21:52:48 22° ESE 21:54:23 33° ENE 21:57:35 10° N
Cosmos 1833 Rocket 3.5 21:49:39 10° N 21:54:50 36° ENE 21:58:17 19° ESE
Cosmos 1408 3.0 21:53:21 10° SSW 21:56:58 64° W 22:00:36 10° N
Envisat 3.0 21:54:17 11° SSE 21:59:12 86° WSW 22:04:19 10° NNW
Timation 2 Rocket 3.8 21:53:34 10° NNW 21:59:35 81° ENE 22:04:05 19° SSE
SEDSat Delta rocket 4.2 21:56:27 10° SW 21:59:54 22° S 22:00:46 21° SSE
GPS 2-05 Rocket1 3.6 21:56:33 10° WSW 22:00:02 37° S 22:01:24 27° SE
Cosmos 614 Rocket 4.0 21:55:21 10° NNW 22:00:24 60° ENE 22:03:37 22° SE
Cosmos 2278 Rocket 2.8 21:56:14 10° SW 22:01:50 61° WNW 22:07:29 10° NNE
Cosmos 1295 Rocket 4.5 21:56:06 10° S 22:02:21 71° E 22:08:34 10° NNE
Cosmos 2154 Rocket 4.5 21:58:19 10° SSW 22:04:27 63° W 22:10:37 10° N
PSLV R/B 3.2 22:06:54 37° SE 22:07:46 56° ENE 22:10:41 10° N
ERS-1 Rocket 3.9 22:04:08 10° S 22:08:57 46° W 22:13:49 10° NNW
Terra 3.6 22:08:59 15° E 22:10:35 17° ENE 22:13:39 10° NNE
deb Chang Zheng 4 4.0 22:07:31 10° N 22:11:54 65° WNW 22:16:18 10° SSW
Cosmos 1420 Rocket 4.3 22:07:16 10° SSW 22:12:29 70° WNW 22:17:42 10° NNE
CZ-4 SHROUD 3.1 22:13:06 41° SE 22:14:00 67° ENE 22:17:04 10° N
APEX 4.0 22:12:46 10° SW 22:16:42 65° WNW 22:21:56 10° NNE
Cosmos 1140 Rocket 3.8 22:11:38 10° NNW 22:16:44 62° WSW 22:20:32 18° S
USA 245 3.5 22:17:04 35° SE 22:18:13 51° ENE 22:22:26 10° N
Cosmos 1825 3.9 22:15:33 10° SW 22:19:01 33° WNW 22:22:32 10° NNW
AVUM R/B 4.1 22:16:53 10° N 22:20:13 39° ENE 22:20:53 35° E
H-2A R/B 2.8 22:18:15 14° S 22:21:42 48° W 22:25:47 10° NNW
Cosmos 2082 Rocket 2.2 22:16:39 10° NNW 22:22:22 75° ENE 22:25:23 29° SSE
Cosmos 1238 Rocket 4.3 22:22:04 10° NNW 22:25:14 32° W 22:28:54 10° SSW
CZ-4B R/B 3.4 22:21:20 10° NNE 22:26:10 57° ESE 22:28:35 28° S
Cosmos 2366 rocket 4.0 22:23:39 19° S 22:28:19 67° E 22:34:38 10° NNE
SPOT 5 3.4 22:25:47 18° S 22:29:42 65° WSW 22:35:03 10° NNW
Cosmos 2151 Rocket 3.5 22:27:32 28° S 22:29:53 72° E 22:34:25 10° NNE
UNK 4.4 22:26:06 10° NNE 22:32:18 86° ESE 22:37:58 11° SSW
Meteor 1-18 Rocket 4.4 22:30:00 10° N 22:35:54 67° ENE 22:38:36 33° SSE
Cosmos 1300 Rocket 4.3 22:36:38 34° E 22:36:45 34° E 22:40:47 10° NNE
ISS -0.3 22:37:10 10° WNW 22:39:26 17° NNW 22:41:43 10° NNE
H-2A R/B 2.7 22:38:16 32° ESE 22:39:56 41° ENE 22:44:51 10° N
Cosmos 2297 4.3 22:34:39 10° SW 22:40:16 59° WNW 22:45:57 10° NNE
USA 229 DEB 3.7 22:33:52 10° NW 22:41:02 90° WSW 22:44:40 32° SSE
USA 229 3.7 22:33:59 10° NW 22:41:08 90° ENE 22:44:46 33° SSE
Lacrosse 5 2.1 22:39:48 32° S 22:41:34 46° SE 22:46:26 10° NE
Meteor 1-14 Rocket 4.4 22:36:25 10° SSW 22:42:04 71° W 22:47:39 10° N
NOAA 11 4.1 22:41:12 34° SSE 22:43:42 84° ENE 22:49:14 10° NNW
Okean 1 Rocket 3.8 22:45:11 36° E 22:45:11 36° E 22:49:11 10° NNE
Okean 1 3.8 22:43:41 10° N 22:47:37 45° E 22:47:42 45° E
Abrixas 3.2 22:46:57 10° WSW 22:49:56 54° NNW 22:50:07 52° N
Cosmos 1302 Rocket 4.4 22:51:35 40° ESE 22:51:46 40° ESE 22:56:41 10° NE
Cosmos 1812 2.7 22:50:33 10° N 22:54:24 66° E 22:54:24 66° E
SPOT 1/Viking Rocket 3.8 22:53:20 33° S 22:55:37 65° WSW 23:00:50 10° NNW
Meteor 2-19 Rocket 4.3 22:53:27 31° S 22:56:37 82° E 23:02:45 10° N
Genesis I 4.4 23:01:26 31° ENE 23:01:26 31° ENE 23:03:46 10° NE
Cosmos 2218 Rocket 4.5 22:53:59 12° SSW 22:59:54 61° W 23:06:15 10° N
Okean 1-7 Rocket 3.8 23:00:45 10° N 23:05:08 51° E 23:05:08 51° E
ASTEX 1 3.8 23:01:34 10° NNE 23:06:19 45° E 23:06:19 45° E
ARGOS 3.5 23:04:32 35° SSW 23:06:37 60° WSW 23:11:56 10° NNW
Meteor 1-11 Rocket 4.1 23:06:22 43° ESE 23:06:56 44° E 23:12:22 10° NNE
Cosmos 2369 Rocket 3.2 23:08:53 29° E 23:08:53 29° E 23:12:44 10° NE
Cosmos 1727 Rocket 4.2 23:07:24 10° NNW 23:13:30 65° W 23:16:13 34° SSW
BREEZE-M DEB (TANK) 4.4 23:12:59 10° NNW 23:14:53 18° NNE 23:18:04 10° ENE
ATLAS 2AS CENTAUR R/B 4.4 23:12:46 10° NNW 23:19:40 29° NE 23:24:47 15° E
Gbstr 26 Del rocket 3.1 23:14:41 10° NW 23:19:40 71° NE 23:19:49 70° NE
CZ-4 R/B 4.4 23:16:09 10° N 23:20:41 52° WNW 23:22:31 32° SW
CARTOSAT-1 3.4 23:21:16 86° N 23:21:16 86° N 23:25:31 10° NNW
OAO 3 Rocket 4.3 23:19:01 10° WSW 23:22:01 32° SW 23:22:01 32° SW
NOSS 3-1 (C) 4.0 23:20:25 10° NNW 23:28:01 75° NE 23:30:51 45° SE
Lacrosse 5 rocket 2.1 23:27:35 33° W 23:28:49 47° NW 23:32:28 10° NNE
Landsat 7 4.3 23:31:39 49° SW 23:32:11 52° W 23:36:51 10° NNW
Cosmos 1943 Rocket 4.1 23:35:42 16° ENE 23:35:42 16° ENE 23:37:29 10° NE
Cosmos 1503 Rocket 4.3 23:29:43 10° N 23:34:51 53° ENE 23:35:00 53° ENE
Meteor 1-19 Rocket 4.2 23:29:18 10° N 23:35:07 68° E 23:35:39 64° ESE
USA 234 3.2 23:29:25 10° NE 23:35:52 58° SE 23:36:21 56° SSE
Meteor 2-21 Rocket 4.4 23:36:29 60° ESE 23:37:04 63° E 23:43:13 10° NNE
Cosmos 1833 Rocket 3.9 23:33:44 10° NW 23:38:38 31° WSW 23:39:59 28° SW
CZ-3 Stage 3 4.3 22:53:57 10° W 23:38:42 48° SSW 23:40:48 42° S
IGS 5A 4.1 23:43:08 53° WNW 23:43:08 53° WNW 23:46:41 10° NNW
Cosmos 1821 Rocket 3.8 23:43:26 67° SSE 23:44:18 80° E 23:50:32 10° N
Cosmos 1605 Rocket 4.4 23:45:07 47° E 23:45:15 47° E 23:51:21 10° NNE
Meteor 2-21 4.4 23:45:54 64° S 23:46:57 88° W 23:53:12 10° N
Terra 2.3 23:47:52 52° W 23:47:53 52° W 23:52:33 10° NNW
DMSP B5D2-2 4.5 23:44:22 10° N 23:49:29 59° WNW 23:50:31 50° WSW
Cosmos 1934 Rocket 3.7 23:51:37 73° SE 23:51:58 76° E 23:58:02 10° N
Cosmos 1809 Rocket 4.4 23:51:04 62° SSW 23:52:11 80° W 23:58:25 10° N
